This demonstration page uses our WeatherBlox Daily Observations layout. Learn more.

Left ArrowRight Arrow

Hourly Observations for March 22, 2022

Temp ( °F °C ) Dew Point ( °F °C ) Humidity (%) Winds ( mph kmh ) Pressure ( in mb ) Visibility ( mi km ) Precip ( " mm )
12:56 am 00:56 Cloudy with Light Rain 35 1.7 34 1.1 96 96 NNE 33 54 29.91 1013 9 14 0.00 0.00
1:37 am 01:37 Cloudy with Light Rain 36 2 34 1 93 93 NNE 29 46 29.94 1014 10 16 0.00 0.00
1:56 am 01:56 Cloudy with Light Rain 36 2.2 33 0.6 89 89 NNE 28 44 29.88 1012 10 16 0.01 0.25
2:56 am 02:56 Cloudy 38 3.3 31 -0.6 76 76 NNE 21 33 29.90 1013 10 16 0.00 0.00
3:27 am 03:27 Cloudy with Light Rain 37 3 30 -1 75 75 N 43 69 29.94 1014 10 16 0.00 0.00
3:56 am 03:56 Cloudy with Light Rain 37 2.8 30 -1.1 76 76 NNE 39 63 29.88 1012 10 16 0.00 0.00
4:33 am 04:33 Very Windy with Snow Likely 34 1 30 -1 87 87 N 38 61 29.95 1014 4 6 0.00 0.00
4:56 am 04:56 Windy with Snow Likely 33 0.6 32 0 96 96 N 32 52 29.90 1013 3 5 0.02 0.51
5:09 am 05:09 Windy with Snow Likely 34 1 30 -1 87 87 N 26 43 29.95 1014 3 4 0.00 0.00
5:56 am 05:56 Windy with Snow Likely 32 0 31 -0.6 96 96 N 29 46 29.90 1013 3 4 0.00 0.00
6:08 am 06:08 Windy with Snow Likely 34 1 30 -1 87 87 N 30 48 29.94 1014 3 5 0.00 0.00
6:15 am 06:15 Windy with Snow Likely 34 1 32 0 93 93 N 31 50 29.94 1014 4 6 0.00 0.00
6:33 am 06:33 Windy with Snow Likely 34 1 32 0 93 93 NNE 23 37 29.94 1014 4 6 0.01 0.25
6:56 am 06:56 Windy with Snow Likely 34 1.1 31 -0.6 89 89 N 35 56 29.88 1012 9 14 0.01 0.25
7:27 am 07:27 Cloudy with Light Rain 34 1 30 -1 87 87 N 22 35 29.95 1014 10 16 0.00 0.00
7:56 am 07:56 Cloudy 34 1.1 31 -0.6 89 89 N 21 33 29.92 1013 10 16 0.00 0.00
8:56 am 08:56 Cloudy 35 1.7 28 -2.2 76 76 N 23 37 29.93 1013 10 16 0.00 0.00
9:56 am 09:56 Cloudy 37 2.8 27 -2.8 67 67 N 25 41 29.93 1014 10 16 0.00 0.00
10:56 am 10:56 Sunny 39 3.9 27 -2.8 62 62 N 24 39 29.92 1013 10 16 0.00 0.00
11:56 am 11:56 Sunny 43 6.1 24 -4.4 47 47 N 36 57 29.89 1012 10 16 0.00 0.00
12:56 pm 12:56 Sunny 46 7.8 23 -5 40 40 N 37 59 29.85 1011 10 16 0.00 0.00
1:56 pm 13:56 Sunny 48 8.9 21 -6.1 34 34 N 40 65 29.85 1011 10 16 0.00 0.00
2:56 pm 14:56 Sunny 49 9.4 20 -6.7 32 32 N 43 69 29.85 1011 10 16 0.00 0.00
3:56 pm 15:56 Sunny 51 10.6 19 -7.2 28 28 N 40 65 29.84 1011 10 16 0.00 0.00
4:56 pm 16:56 Sunny 51 10.6 19 -7.2 28 28 N 41 67 29.84 1011 10 16 0.00 0.00
5:56 pm 17:56 Sunny 50 10 20 -6.7 30 30 N 38 61 29.86 1011 10 16 0.00 0.00
6:56 pm 18:56 Sunny 49 9.4 20 -6.7 32 32 N 30 48 29.88 1012 10 16 0.00 0.00
7:56 pm 19:56 Clear 47 8.3 20 -6.7 34 34 N 24 39 29.91 1013 10 16 0.00 0.00
8:56 pm 20:56 Clear 45 7.2 21 -6.1 39 39 N 25 41 29.92 1013 10 16 0.00 0.00
9:56 pm 21:56 Clear 43 6.1 21 -6.1 42 42 N 22 35 29.94 1014 10 16 0.00 0.00
10:56 pm 22:56 Clear 42 5.6 20 -6.7 41 41 N 21 33 29.95 1014 10 16 0.00 0.00
11:56 pm 23:56 Clear 40 4.4 19 -7.2 43 43 NNW 14 22 29.95 1014 10 16 0.00 0.00

Powered by AerisWeather